Location: Skalnate Pleso
(49.1889°N, 20.2450°E)
Time: 06:37:41
(UTC+02:00)

Cosmos 1605 Rocket - Pass Details

Date: 24 February 2020
Orbit: 944 x 1007 km, 82.9° (Epoch: 04 April)

Event Time Altitude Azimuth Distance (km) Brightness Sun altitude
Rises 04:30:45 0° 343° (NNW) 3,681 6.9 -20.6°
Reaches altitude 10° 04:33:35 10° 333° (NNW) 2,719 6.1 -20.1°
Enters shadow 04:37:38 28° 295° (WNW) 1,741 4.9 -19.5°
